Other Public Products
Issued by NWS Grand Forks, ND

Home | Current Version | Previous Version | Graphics & Text | Print | Product List | Glossary On
Versions: 1 2 3 4 5 6 7 8 9 10 11 12 13 14 15 16 17 18 19 20 21 22 23 24 25 26 27 28 29 30 31 32 33 34 35 36 37 38 39 40 41 42 43 44 45 46 47 48 49 50
000
FPUS83 KFGF 030231
OPUFGF
PRAIRIE TO PINES WEATHER ROUNDUP
NATIONAL WEATHER SERVICE EASTERN NORTH DAKOTA/GRAND FORKS ND
900 PM CDT THU JUL 02 2015

 **SATELLITE DATA USED TO AUGMENT SKY COVER AT AUTOMATED STATIONS**
 *****  WEATHER ACROSS EASTERN NORTH DAKOTA  *****

CITY           SKY/WX    TMP DP  RH WIND       PRES   REMARKS
GRAND FORKS    CLOUDY    72  66  81 SW6       29.88R
GRAND FORKS AF PTCLDY    70  65  83 W6        29.89S
GRAND CITY NWS   N/A     72 N/A N/A W2          N/A
BUXTON         NOT AVBL
DEVILS LAKE    PTCLDY    70  61  73 W8        29.91S
FARGO          MOCLDY    71  54  54 S8        29.92S
WAHPETON ARPT  PTCLDY    64  55  72 S6        29.95S
$$

 *****  WEATHER ACROSS CENTRAL AND WESTERN NORTH DAKOTA  *****

CITY           SKY/WX    TMP DP  RH WIND       PRES   REMARKS
JAMESTOWN      CLEAR     72  65  78 S5        29.92F
BISMARCK       CLOUDY    74  63  68 NW7       29.96F HAZE
MINOT          CLOUDY    72  64  76 NW9       29.95S HAZE
MINOT AFB      MOCLDY    70  70 100 W6        29.95R FOG
GARRISON         N/A     72  67  84 NW5       29.97S
WILLISTON      CLEAR     79  59  50 N5        29.99S
DICKINSON      CLEAR     73  59  61 N5        30.01R
HETTINGER      PTCLDY    73  61  65 N3        30.04S HAZE
$$

 *****  OTHER OBSERVATIONS NORTHEAST NORTH DAKOTA  *****

CITY           SKY/WX    TMP DP  RH WIND       PRES   REMARKS
WALHALLA       FAIR      73  73 100 MISG      29.88R FOG
LANGDON        FAIR      68  66  94 W7        29.92S FOG
CAVALIER       FAIR      73  66  78 W5        29.87R HAZE
GRAFTON        FAIR      70  68  94 SW5       29.88S FOG
CANDO          FAIR      68  64  88 W6        29.93S FOG
FORT TOTTEN      N/A     70  61  74 CALM      29.95S
ROLLA          FAIR      68  66  94 NW6       29.95S
RUGBY          NOT AVBL
 ***** THE ABOVE OBSERVATIONS ARE NON NWS ARE NOT QUALITY
        CONTROLLED AND MAY MIS-REPORT RAIN FOR SNOW...
$$

 *****  OTHER OBSERVATIONS SOUTHEAST NORTH DAKOTA *****

CITY           SKY/WX    TMP DP  RH WIND       PRES   REMARKS
COOPERSTOWN    NOT AVBL
VALLEY CITY    FAIR      72  68  88 SW7       29.93R
OAKES            N/A     66  66 100 S8        29.95S
GWINNER          N/A    N/A N/A N/A MISG        N/A
SHEYENNE NWR     N/A     71  63  76 S3        29.95
BUFFALO        NOT AVBL
WYNDMERE       NOT AVBL
 ***** THE ABOVE OBSERVATIONS ARE NON NWS ARE NOT QUALITY
       CONTROLLED AND MAY MIS-REPORT RAIN FOR SNOW...
$$

  *****  WEATHER ACROSS NORTHERN MINNESOTA  *****

CITY           SKY/WX    TMP DP  RH WIND       PRES   REMARKS
FLAG ISLAND    CLOUDY    72  63  73 SW7       29.84S
WARROAD        MOCLDY    70  63  78 SW6       29.88S
ROSEAU         MOCLDY    72  63  73 SW9       29.87S
HALLOCK        PTCLDY    70  66  88 CALM      29.86S
THF RVR FALLS  CLOUDY    70  57  64 S8        29.91S
HALSTAD        NOT AVBL
FOSSTON        CLOUDY    66  55  68 S7        29.94R
BAUDETTE       MOCLDY    69  57  65 SW6       29.88S
WASKISH        PTCLDY    70  57  64 S5        29.91S
CROOKSTON      PTCLDY    72  63  73 S10       29.90S
$$
  *****  WEATHER ACROSS CENTRAL AND WEST MINNESOTA  *****

CITY           SKY/WX    TMP DP  RH WIND       PRES   REMARKS
BEMIDJI        PTCLDY    67  56  69 SW5       29.95R
PARK RAPIDS    PTCLDY    65  56  72 SW6       29.96S
WADENA         PTCLDY    63  54  72 CALM      29.96S
DETROIT LAKES  MOCLDY    68  54  60 S5        29.97S
MOORHEAD       MOCLDY    70  55  60 S7        29.93S
FERGUS FALLS   PTCLDY    68  57  68 CALM      29.95S
ELBOW LAKE     FAIR      64  56  74 S5        29.96S
MORRIS MN      CLEAR     64  55  72 S5        29.96S
STAPLES        CLEAR     63  54  72 CALM      29.96F
WHEATON        CLEAR     64  54  68 S5        29.97S
$$
  *****  WEATHER ELSEWHERE ACROSS MINNESOTA  *****

CITY           SKY/WX    TMP DP  RH WIND       PRES   REMARKS
DULUTH         PTCLDY    69  57  65 SW7       29.95S
INTRNTL FALLS  MOCLDY    67  57  70 SW6       29.89S
ELY            MOCLDY    68  57  68 W3        29.93R
CLOQUET        PTCLDY    66  54  63 SW3       29.96S
BRAINERD       CLEAR     69  55  60 W6        29.97S
HIBBING        PTCLDY    67  58  72 SW3       29.94S
ALEXANDRIA     CLEAR     66  52  60 S5        29.98F
SAINT CLOUD    CLEAR     66  57  72 S5        29.96F
MINNEAPOLIS    MOCLDY    73  53  49 SW5       29.97S
$$

  *****  WEATHER ACROSS SOUTH DAKOTA  *****

CITY           SKY/WX    TMP DP  RH WIND       PRES   REMARKS
SIOUX FALLS    PTCLDY    66  59  78 S3        29.98S
BROOKINGS      PTCLDY    66  54  63 S3        30.00S
WATERTOWN      CLEAR     64  53  67 S6        29.97F
HURON          PTCLDY    67  60  78 S5        29.97S
SISSETON         N/A     66  57  72 SW3       29.95R
ABERDEEN       PTCLDY    68  62  81 S5        29.97R
MITCHELL       CLEAR     67  62  84 SE5       29.98S
PIERRE         PTCLDY    74  64  71 CALM      29.96R
MOBRIDGE       CLEAR     74  69  85 N3        29.94S HAZE
RAPID CITY     CLEAR     71  60  68 N7        30.06S
$$

  *****  SOME WEATHER IN NEARBY STATES *****

CITY           SKY/WX    TMP DP  RH WIND       PRES   REMARKS
GLASGOW MT     CLEAR     78  55  44 N8        30.02R
GREAT FALLS MT MOSUNNY   81  46  29 E13       30.05F
CHEYENNE WY    CLOUDY    69  54  58 SW9       30.23R
SCOTTSBLUFF NE CLEAR     76  59  55 NE5       30.09R
OMAHA NE       CLOUDY    69  62  78 E3        29.95R
DES MOINES IA  CLOUDY    67  54  63 VRB3      29.97R
DAVENPORT IA   CLOUDY    63  58  83 NE5       29.97S
CHICAGO IL     CLOUDY    59  49  69 NE8       29.99R
EAU CLAIRE WI  CLEAR     67  56  67 CALM      29.98R
LA CROSSE WI   PTCLDY    68  55  63 E5        29.97S
$$

  *****  SOME NATIONAL WEATHER *****

CITY           SKY/WX    TMP DP  RH WIND       PRES   REMARKS
LA GUARDIA NY  CLOUDY    74  59  59 S3        29.86R
RALEIGH NC     CLOUDY    72  70  93 S3        29.92R
ATLANTA GA     CLOUDY    79  70  74 SW7       29.98R
NEW ORLEANS LA MOCLDY    82  72  71 S8        30.02S
OKLAHOMA CITY  TSTM      78  73  84 SE8       29.89S
ALBUQUERQUE NM CLOUDY    75  58  55 E18       30.13R THUNDER
SALT LAKE CITY MOCLDY    95  45  17 N7        29.96S HX  91
LOS ANGELES CA PTSUNNY   68  63  83 W14       29.92F
BOISE ID       SUNNY    102  39  11 NW9       29.86F HX  97
SEATTLE WA     MOSUNNY   91  54  28 NW8       29.95S
$$

*** WEATHER ACROSS MANITOBA...SASKATCHEWAN AND ONTARIO ***
                ***ONTARIO***

CITY           SKY/WX    TMP DP  RH WIND       PRES   REMARKS
GERALDTON      LGT RAIN  59  59 100 S6        29.87F VSB 1
THUNDER BAY    CLOUDY    59  55  88 NE3       29.88F
SIOUX LOOKOUT  NOT AVBL
TORONTO        PTCLDY    63  41  45 N10       29.99R
BIG TROUT LK   CLEAR     61  61 100 SW5       29.67S
PICKLE LAKE    MOCLDY    61  59  94 S3        29.77F SMOKE
DRYDEN         PTCLDY    70  57  64 SW14G20   29.82F
KENORA         CLOUDY    70  63  78 SW10      29.85F
$$
                *** MANITOBA***

CITY           SKY/WX    TMP DP  RH WIND       PRES   REMARKS
BRANDON        SMOKE     66  64  94 NW7       29.92R VSB 1
DAUPHIN        PTCLDY    73  64  73 SW7       29.87S HAZE
ISLAND LAKE    PTCLDY    63  61  94 N2        29.76R THUNDER
PILOT MOUND      N/A     68  63  83 NW6         N/A
THE PAS        CLOUDY    73  54  49 N6        29.87R SMOKE
THOMPSON       PTCLDY    73  48  40 N6        29.80R
WINNIPEG         N/A     68  66  94 W6        29.86R SMOKE
LYNN LAKE      CLEAR     72  46  40 N6        29.85S
CHURCHILL      PTCLDY    55  46  71 E2        29.79R
GILLAM         PTCLDY    64  59  82 N16       29.77R
$$
                ***SASKATCHEWAN***

CITY           SKY/WX    TMP DP  RH WIND       PRES   REMARKS
ESTEVAN        CLOUDY    70  64  83 NW6       29.98S SMOKE
KINDERSLEY     PTSUNNY   75  64  69 E3        30.00F
LLOYDMINSTER   PTSUNNY   79  52  38 SW7       29.97F
PRINCE ALBERT  MOSUNNY   75  59  57 W5        29.93  SMOKE
REGINA         MOCLDY    73  64  73 NW6       29.99S SMOKE


USA.gov is the U.S. government's official web portal to all federal, state and local government web resources and services.